CW6294 Weather Reports


Display with metric or nautical units.
time (UTC)temp
F
wind
direction
speed
MPH
gust
MPH
rain 1hr
in
rain 24hr
in
rain mn
in
humidity
%
barometer
mb
20260510070604 59 77 0.0 0.0 0.00 0.00 0.00 96 1008.5
20260510065100 59 77 0.0 0.0 0.00 0.00 0.00 96 1008.3
20260510064252 59 77 0.0 0.0 0.00 0.00 0.00 95 1008.3
20260510062045 60 77 0.0 0.0 0.00 0.00 0.00 95 1008.4
20260510060545 60 77 0.0 0.0 0.00 0.00 0.00 94 1008.3
20260510055044 60 77 0.0 0.0 0.00 0.00 0.00 93 1008.2
20260510053542 62 77 0.0 0.0 0.00 0.00 0.00 91 1008.2
20260510052039 62 77 0.0 0.0 0.00 0.00 0.00 90 1008.3
20260510051226 63 77 0.0 0.0 0.00 0.00 0.00 89 1008.2
20260510044959 63 77 0.0 0.0 0.00 0.00 0.00 89 1008.3
20260510043455 64 77 0.0 0.0 0.00 0.00 0.00 88 1008.3
20260510041947 64 77 0.0 0.0 0.00 0.00 0.00 88 1008.3
20260510040446 64 77 0.0 0.0 0.00 0.00 0.00 88 1008.3
20260510034943 64 77 0.0 0.0 0.00 0.00 0.00 87 1008.3
20260510034104 65 77 0.0 0.0 0.00 0.00 0.00 86 1008.2
20260510031901 65 77 0.0 0.0 0.00 0.00 0.00 85 1008.1
20260510030354 65 77 0.0 0.0 0.00 0.00 0.00 85 1008.2
20260510025546 65 77 0.0 0.0 0.00 0.00 0.00 84 1008.0
20260510024050 66 77 0.0 0.0 0.00 0.00 0.00 83 1007.9
20260510021850 67 77 0.0 0.0 0.00 0.00 0.00 81 1007.9
20260510020347 67 63 0.0 0.0 0.00 0.00 0.00 81 1007.7
20260510014840 67 96 0.0 0.0 0.00 0.00 0.00 80 1007.6
20260510013332 68 72 0.0 0.0 0.00 0.00 0.00 78 1007.3
20260510012521 69 70 0.0 0.0 0.00 0.00 0.00 76 1007.1
20260510010322 69 178 0.0 0.0 0.00 0.00 0.00 74 1006.9
20260510004807 69 178 0.0 0.0 0.00 0.00 0.00 73 1007.0
20260510003307 70 178 0.0 0.0 0.00 0.00 0.00 71 1006.9
20260510001758 71 178 0.0 0.0 0.00 0.00 0.00 70 1006.7
20260510000259 72 178 0.0 0.0 0.00 0.00 0.00 68 1006.6
20260509235442 73 178 0.0 0.0 0.00 0.00 0.00 68 1006.5
20260509233240 73 178 0.0 0.0 0.00 0.00 0.00 67 1006.4
20260509231737 74 182 0.0 0.0 0.00 0.00 0.00 66 1006.4
20260509230914 74 153 0.0 0.0 0.00 0.00 0.00 65 1006.3
20260509225415 74 167 0.0 0.0 0.00 0.00 0.00 65 1006.3
20260509223200 74 139 0.0 0.0 0.00 0.00 0.00 66 1006.4
20260509222351 74 182 0.0 1.0 0.00 0.00 0.00 64 1006.5
20260509220142 75 183 0.0 0.0 0.00 0.00 0.00 64 1006.5
20260509214644 74 140 0.0 0.0 0.00 0.00 0.00 66 1006.3
20260509213819 75 146 2.0 10.0 0.00 0.00 0.00 66 1006.5
20260509211606 75 192 1.0 8.0 0.00 0.00 0.00 65 1006.5
20260509210106 76 174 3.0 10.0 0.00 0.00 0.00 63 1006.4
20260509204606 75 227 2.0 12.0 0.00 0.00 0.00 64 1006.5
20260509203111 76 138 2.0 9.0 0.00 0.00 0.00 63 1006.2
20260509201606 75 170 4.0 11.0 0.00 0.00 0.00 65 1006.4
20260509200108 74 278 3.0 14.0 0.00 0.00 0.00 66 1006.6
20260509194602 74 141 0.0 10.0 0.00 0.00 0.00 68 1006.7
20260509193103 73 158 3.0 10.0 0.00 0.00 0.00 69 1007.1
20260509191602 71 207 0.0 1.0 0.00 0.00 0.00 70 1007.3
20260509184554 71 210 0.0 1.0 0.00 0.00 0.00 70 1007.5
20260509183802 70 168 3.0 12.0 0.00 0.00 0.00 70 1007.8
20260509182253 71 211 3.0 10.0 0.00 0.00 0.00 70 1008.0
20260509180055 71 182 3.0 9.0 0.00 0.00 0.00 69 1008.3
20260509174551 70 190 4.0 12.0 0.00 0.00 0.00 69 1008.4
20260509173050 72 164 3.0 11.0 0.00 0.00 0.00 67 1008.4
20260509171550 71 170 4.0 9.0 0.00 0.00 0.00 69 1008.5
20260509170050 70 192 5.0 11.0 0.00 0.00 0.00 69 1008.4
20260509164551 70 233 4.0 12.0 0.00 0.00 0.00 69 1008.5
20260509163049 69 192 5.0 12.0 0.00 0.00 0.00 70 1008.6
20260509161547 69 175 5.0 12.0 0.00 0.00 0.00 70 1008.6
20260509160046 67 221 4.0 11.0 0.00 0.00 0.00 72 1008.7
20260509154543 67 192 4.0 13.0 0.00 0.00 0.00 72 1009.0
20260509153043 67 209 6.0 14.0 0.00 0.00 0.00 73 1009.0
20260509151543 67 196 7.0 16.0 0.00 0.00 0.00 72 1009.0
20260509150043 66 191 5.0 13.0 0.00 0.00 0.00 73 1009.2
20260509144544 65 150 4.0 12.0 0.00 0.00 0.00 75 1009.5
20260509143045 64 178 3.0 11.0 0.00 0.00 0.00 76 1009.6
20260509141530 63 17 5.0 11.0 0.00 0.00 0.00 77 1009.7
20260509140723 62 227 4.0 11.0 0.00 0.00 0.00 78 1009.7
20260509135224 61 138 3.0 9.0 0.00 0.00 0.00 80 1009.6
20260509133028 60 180 3.0 10.0 0.00 0.00 0.00 80 1009.8
20260509132242 60 149 3.0 9.0 0.00 0.00 0.00 81 1009.7
20260509130029 60 56 4.0 12.0 0.00 0.00 0.00 81 1009.8
20260509124526 60 213 3.0 9.0 0.00 0.00 0.00 80 1009.9
20260509123027 60 251 3.0 9.0 0.00 0.00 0.00 80 1009.8
20260509121521 59 121 3.0 8.0 0.00 0.00 0.00 80 1009.7
20260509120018 59 137 4.0 11.0 0.00 0.00 0.00 80 1009.7
20260509115220 59 175 2.0 10.0 0.00 0.00 0.00 78 1009.7
20260509113708 59 207 1.0 9.0 0.00 0.00 0.00 77 1009.8
20260509111512 59 221 2.0 10.0 0.00 0.00 0.00 76 1009.4
20260509110012 59 142 0.0 0.0 0.00 0.00 0.00 75 1009.5
20260509104510 59 185 0.0 0.0 0.00 0.00 0.00 74 1009.4
20260509103008 59 147 0.0 0.0 0.00 0.00 0.00 73 1009.3
20260509101506 59 205 0.0 0.0 0.00 0.00 0.00 71 1009.2
20260509100007 59 192 0.0 0.0 0.00 0.00 0.00 69 1009.1
20260509094451 59 200 0.0 0.0 0.00 0.00 0.00 69 1009.1
20260509093640 60 207 0.0 0.0 0.00 0.00 0.00 68 1009.2
20260509092149 60 184 0.0 0.0 0.00 0.00 0.00 68 1009.2
20260509085928 60 190 1.0 12.0 0.00 0.00 0.00 67 1009.4
20260509085130 60 182 4.0 12.0 0.00 0.00 0.00 67 1009.4
20260509083628 60 223 5.0 12.0 0.00 0.00 0.00 69 1009.4
20260509081426 59 208 4.0 12.0 0.00 0.00 0.00 72 1009.5
20260509080624 59 213 4.0 13.0 0.00 0.00 0.00 72 1009.8
20260509075130 59 194 3.0 10.0 0.00 0.00 0.00 72 1009.8
20260509072919 59 243 2.0 11.0 0.00 0.00 0.00 71 1009.9